Terminal Aerodrome Forecast
Issued by NWS Omaha/Valley, NE

Home | Current Version | Previous Version | Graphics & Text | Print | Product List | Glossary On
Versions: 1 2 3 4 5 6 7 8 9 10 11 12 13 14 15 16 17 18 19 20 21 22 23 24 25 26 27 28 29 30 31 32 33 34
000
FTUS43 KOAX 151024 AAA
TAFOFK
TAF AMD
KOFK 151024Z 1510/1606 35012KT P6SM OVC035
      TEMPO 1511/1514 OVC025
     FM151500 35012G18KT P6SM SCT020
     FM152100 01007KT P6SM SCT040
     FM152300 VRB03KT P6SM SKC=

USA.gov is the U.S. government's official web portal to all federal, state and local government web resources and services.